カタログに戻る

ARIANE 2 DEB

LostGTO
NORAD 40785·DEBRIS·🇫🇷 France

打ち上げ Jan 27, 1989 から Guiana Space Centre

Loading…

TLE

古いSource: Space-Track

元期: Sep 11, 2025, 12:35 UTC

1 40785U 89006CE  25254.52494609  .00000194  00000-0  12977-2 0  9996
2 40785   7.9677  30.3911 7068185  11.5607 269.5081  2.42427986165427

AllMySatでARIANE 2 DEBをリアルタイム追跡

Download on the App Store